Location: Oshawa
(43.9000°N, 78.8670°W)
Time: 18:24:22
(UTC-04:00)

Transit 2A Rocket - Visible Passes

Search period start: 23 September 2014 00:00
Search period end: 03 October 2014 00:00
Orbit: 593 x 916 km, 66.7° (Epoch: 21 September)

Date Brightness Start Highest point End Pass type
(mag) Time Alt. Az. Time Alt. Az. Time Alt. Az.
23 Sep 7.3 04:00:48 11° N 04:00:48 11° N 04:01:19 10° N visible
24 Sep 7.6 03:20:12 10° N 03:20:12 10° N 03:20:17 10° N visible
02 Oct 7.7 06:22:14 10° NNE 06:23:39 11° NNE 06:25:05 10° NE visible
